Location: Poughquag
(41.6090°N, 73.6820°W)
Time: 11:30:16
(UTC-05:00)

N. Korean satellite - Pass Details

Date: 22 January 2020
Orbit: 456 x 505 km, 97.2° (Epoch: 24 February)

Event Time Altitude Azimuth Distance (km) Brightness Sun altitude
Rises 06:43:34 0° 353° (N) 2,526 9.9 -6.3°
Reaches altitude 10° 06:46:10 10° 332° (NNW) 1,653 8.8 -5.9°
Maximum altitude 06:48:26 16° 292° (WNW) 1,313 8.1 -5.5°
Drops below altitude 10° 06:50:44 10° 252° (WSW) 1,663 8.8 -5.1°
Sets 06:53:22 0° 231° (SW) 2,549 9.9 -4.6°
